RH
73 65 61 53 50 48 52 74 80 78 75 78 76 76 77 85 82 82 80 63 46 30 22 15 14 16 56 61 52 38 18 18 18 17 16 16 15 14 13 13 12 12 12
62 62 62 60 56 46 59 73 78 76 76 79 78 85 85 84 82 84 82 59 46 29 21 16 19 19 15 36 38 48 26 19 18 18 17 16 16 14 13 13 12 12 11
61 67 64 61 57 53 60 66 71 74 74 74 83 94 95 85 78 84 85 56 45 32 25 18 18 24 16 17 31 47 41 22 19 19 18 17 16 15 14 13 12 12 12
73 70 64 63 54 47 53 66 71 75 74 77 87 91 90 78 76 85 86 61 51 45 30 23 19 19 27 32 38 44 42 29 22 20 18 17 16 15 14 14 13 12 12
72 65 56 58 53 47 44 55 65 76 78 82 89 92 89 85 88 88 92 80 56 53 42 29 23 21 19 20 23 26 26 23 20 18 17 16 16 15 13 14 14 13 13
77 69 59 62 52 46 47 63 62 71 80 86 89 91 88 85 85 91 98 84 71 55 50 37 30 23 19 18 18 18 18 18 18 17 17 16 15 15 14 14 15 15 16
96 86 65 66 60 51 48 48 52 59 61 74 80 91 90 87 87 91 88 82 75 56 53 46 37 30 25 21 19 16 16 16 16 15 15 15 15 15 15 16 18 19 21
95 83 78 74 59 52 51 51 49 52 58 69 70 89 94 93 87 81 81 75 65 56 57 58 46 39 33 28 24 21 19 18 17 17 18 18 19 20 22 24 25 23 24
100 93 84 83 63 54 52 50 52 53 62 68 75 80 85 92 94 84 88 97 90 59 57 62 51 46 42 37 33 30 30 28 27 28 28 27 29 29 31 35 36 34 27
95 94 97 86 70 59 55 50 56 58 59 71 80 78 80 85 89 96 100 99 100 96 62 68 58 54 53 50 51 51 53 53 51 48 42 39 41 42 44 43 46 51 52
65 75 98 87 69 68 59 56 58 61 53 64 70 81 86 90 92 98 98 98 98 99 98 100 85 63 64 68 68 66 70 70 68 64 62 60 58 58 57 58 65 70 72
56 60 99 86 87 73 63 65 64 61 57 58 57 56 82 91 96 99 95 98 89 97 99 99 96 82 72 69 70 73 76 77 72 63 60 54 62 79 82 80 82 90 90
68 77 78 83 83 71 65 66 65 60 62 63 59 49 64 99 89 92 99 80 84 91 93 94 82 68 72 75 75 82 86 88 81 76 69 73 86 97 98 96 99 99 92
67 72 81 80 69 62 59 60 59 58 57 58 63 66 52 54 99 97 98 92 79 87 90 89 79 78 73 74 77 86 94 97 90 90 91 94 95 98 100 94 97 99 100
74 79 78 87 72 62 62 60 59 60 59 54 57 63 66 54 56 99 100 100 99 93 99 100 97 85 79 82 89 96 100 99 99 97 99 99 99 99 99 99 100 84 78
65 71 73 72 71 68 64 62 59 58 52 52 59 66 76 80 66 71 100 100 99 100 100 99 100 100 100 100 99 96 98 100 99 99 100 96 98 96 94 90 91 94 89
48 45 49 50 51 52 52 54 58 59 54 52 55 62 69 76 84 76 70 76 87 96 99 96 99 99 98 88 100 95 83 81 94 94 91 99 95 96 100 87 72 90 88
47 45 44 42 42 42 43 43 44 55 55 52 54 55 60 76 77 80 82 78 75 79 84 96 90 90 82 80 88 88 86 96 98 87 99 97 100 98 98 96 99 99 99
52 48 45 44 39 37 38 41 42 48 50 50 51 55 61 63 68 69 78 80 74 73 76 81 79 91 97 100 100 98 93 98 98 99 100 100 99 86 100 99 99 99 99
47 48 48 45 42 40 37 34 38 39 42 44 46 49 57 68 67 72 82 82 79 84 96 98 93 99 99 100 98 99 100 100 100 100 98 94 100 99 100 98 99 98 76
45 41 40 40 42 41 38 40 35 36 40 40 44 51 60 77 97 90 99 99 99 100 91 98 99 98 100 100 99 96 93 86 97 99 100 100 100 98 95 69 65 69 67
41 43 46 45 42 42 44 41 42 36 43 65 63 68 76 92 100 86 99 99 100 100 91 96 98 98 99 100 98 99 100 100 100 99 98 96 68 71 67 72 72 68 70
33 28 25 38 46 45 46 47 44 43 38 48 88 99 100 100 100 100 98 100 99 100 98 100 100 99 98 99 84 69 75 93 95 75 65 66 73 77 74 72 74 77 77
42 41 32 28 35 53 53 53 52 48 46 50 95 100 100 100 100 98 99 98 98 99 99 92 65 50 50 51 53 57 56 57 65 75 81 81 80 80 80 81 79 72 69
53 42 41 49 58 68 64 59 57 56 53 59 74 72 88 93 93 98 99 98 72 57 49 48 48 47 47 49 52 60 70 79 85 84 83 84 84 82 79 72 79 91 88
49 57 43 36 39 55 76 72 65 61 59 59 63 69 70 66 64 60 55 54 53 53 52 52 53 54 62 73 82 86 88 87 87 86 87 89 92 94 96 95 90 60 36
Wind_Speed
48 42 40 38 38 38 40 41 41 39 38 36 34 32 30 29 25 24 24 23 22 19 18 19 21 24 25 26 26 25 25 23 22 21 19 18 17 16 16 16 17 17 18
45 45 42 43 41 38 39 41 40 38 36 34 32 31 30 27 25 26 26 24 20 17 17 18 19 21 24 25 25 25 24 24 23 21 21 19 18 18 18 18 18 19 20
48 46 44 45 40 40 40 40 40 38 37 35 34 33 32 30 30 30 28 24 21 20 18 18 19 19 21 22 24 25 25 25 25 23 22 20 20 19 20 20 20 21 21
48 45 47 44 41 38 39 40 40 39 37 35 33 32 29 29 28 29 28 25 22 19 18 18 19 20 20 21 22 24 24 25 24 23 22 22 22 22 21 21 22 22 23
50 45 47 42 38 39 39 38 38 38 36 35 33 32 30 28 27 30 29 28 24 22 20 19 19 19 19 21 22 22 23 23 24 24 24 24 23 23 24 22 23 23 24
50 47 45 40 40 41 40 39 39 38 37 36 34 32 31 29 31 31 34 30 27 25 24 22 20 20 21 22 22 23 24 24 25 25 24 25 26 24 25 24 22 23 24
53 46 44 45 45 45 42 38 37 36 35 35 34 33 32 30 29 32 34 32 31 27 26 24 22 22 21 22 23 23 23 24 24 25 25 25 25 25 25 25 26 25 24
42 45 47 45 43 43 39 38 36 35 35 36 35 35 34 32 29 34 36 33 32 30 30 28 25 24 24 24 23 23 23 23 23 23 24 25 25 25 26 26 28 29 28
46 48 49 45 41 42 40 38 35 34 35 32 33 34 33 36 34 34 36 35 37 33 34 32 30 28 26 24 23 22 21 21 22 23 24 24 26 27 27 27 28 29 28
38 36 49 45 38 36 34 37 35 32 29 30 32 32 32 32 34 35 40 47 37 35 37 34 32 29 27 25 23 21 21 21 22 23 24 24 25 25 26 25 25 23 23
46 45 38 43 36 31 33 33 34 32 29 28 29 32 34 34 34 37 35 24 26 36 33 44 34 29 26 24 23 24 23 23 24 25 26 24 25 24 22 23 22 21 22
33 31 46 35 31 28 31 33 32 32 28 28 28 31 34 38 36 33 29 26 26 30 37 40 38 29 25 25 31 28 25 25 26 27 29 25 26 24 24 24 23 25 27
39 37 28 40 35 32 28 32 34 32 30 28 27 26 30 37 32 31 29 26 28 27 25 27 32 32 33 34 32 30 29 28 27 27 29 26 28 27 28 30 32 30 35
37 36 36 38 31 33 31 33 32 31 31 31 30 27 24 27 31 32 32 30 29 30 33 34 36 38 36 36 35 34 34 32 30 30 31 32 35 36 36 35 36 38 29
38 40 40 38 37 40 42 42 39 36 34 34 33 28 24 22 26 33 35 34 35 36 38 38 34 37 38 38 37 35 36 35 36 36 35 39 39 43 33 35 30 32 34
23 28 31 32 38 41 41 40 40 37 35 36 37 33 32 28 26 30 34 34 37 39 39 38 37 38 38 36 37 38 37 37 37 39 45 45 48 30 34 36 35 39 41
15 19 25 28 32 34 36 38 39 40 39 38 37 36 36 34 30 29 30 34 36 37 37 37 38 39 41 40 39 38 38 40 43 43 47 39 34 38 35 37 38 44 49
21 21 19 22 25 30 38 34 37 39 42 43 41 38 36 38 37 34 31 29 30 33 34 36 36 37 39 38 40 41 41 42 44 42 38 42 42 40 42 41 39 42 46
26 25 26 25 26 24 27 33 37 36 39 42 42 43 41 39 38 38 35 33 34 33 34 35 36 37 39 39 39 39 40 40 38 43 43 44 41 41 40 35 41 51 52
30 30 32 31 31 32 31 29 35 40 39 39 39 41 42 41 40 39 40 39 38 37 38 40 39 40 41 39 40 38 42 44 46 51 46 43 45 37 43 48 52 53 50
27 33 33 34 34 34 33 35 33 34 41 42 41 42 42 41 42 43 39 42 41 42 41 40 40 40 41 45 43 44 44 41 44 44 43 45 50 51 48 48 43 39 38
20 26 26 30 34 35 35 34 36 35 35 41 43 43 42 41 44 42 44 42 40 41 42 47 50 49 47 40 42 43 40 41 45 48 50 47 44 41 41 39 37 37 37
15 16 17 24 28 29 35 33 33 34 33 32 38 38 39 36 36 39 40 42 41 37 42 44 46 49 44 42 46 48 48 48 49 47 43 41 39 38 37 36 36 36 35
16 16 18 21 22 27 29 33 33 33 33 32 33 35 38 38 37 40 40 43 45 44 41 40 41 42 45 45 44 43 43 41 40 39 38 36 35 35 34 34 34 32 33
21 19 19 18 20 20 24 27 30 31 32 32 34 35 37 38 38 39 40 41 41 40 41 42 42 42 42 41 41 39 38 37 36 35 34 33 33 34 34 32 33 32 26
25 21 20 17 15 15 17 20 22 25 27 29 30 32 33 34 35 35 36 37 37 38 38 38 38 38 37 36 36 35 35 34 34 34 34 34 33 32 29 24 21 23 27
Wind_Direction
202 202 200 205 204 203 201 198 198 199 200 201 204 207 210 208 214 211 211 215 218 224 222 217 214 212 209 211 214 216 217 219 221 224 228 235 241 246 252 258 262 266 272
205 205 201 204 203 204 200 199 200 202 204 206 206 208 209 213 215 214 214 215 216 219 220 218 219 215 214 214 217 219 221 223 226 229 234 240 247 252 257 260 264 268 273
202 203 201 202 202 202 200 200 201 203 206 207 209 209 208 211 216 214 212 210 213 216 218 217 220 214 211 211 215 219 222 226 229 233 240 245 251 257 259 263 267 270 275
204 204 203 200 203 202 202 202 203 205 208 209 212 212 216 219 221 211 209 211 217 221 223 220 220 218 215 213 216 221 226 229 234 239 244 247 251 256 261 264 267 272 276
201 203 200 202 203 204 205 204 205 207 209 211 213 213 218 220 219 214 213 215 218 219 224 224 224 225 223 222 224 226 231 234 238 241 245 250 255 256 259 261 266 270 273
200 203 202 204 207 207 207 206 206 208 210 212 215 216 219 223 222 216 215 216 221 220 222 225 226 227 227 229 231 232 234 237 240 244 248 252 254 258 260 262 262 265 272
196 200 201 207 211 211 208 210 212 212 212 214 218 218 221 225 224 218 215 218 224 223 224 226 226 229 229 231 234 237 239 243 246 249 251 254 259 261 265 269 273 273 271
212 197 208 211 214 211 211 213 216 217 217 217 217 219 222 225 226 218 217 222 223 222 225 224 225 228 229 230 234 238 241 245 249 254 258 261 264 268 270 273 277 279 281
208 203 208 211 214 213 214 216 218 220 221 221 221 222 226 227 228 226 222 226 227 224 225 225 223 224 228 231 235 239 245 251 255 258 261 264 267 269 273 278 280 281 281
212 220 206 208 213 215 218 220 217 222 225 224 228 230 232 231 231 238 235 222 232 225 226 222 227 227 231 236 242 248 253 259 263 266 267 268 269 272 275 274 277 284 290
233 236 214 205 208 221 221 218 219 222 225 227 232 235 234 237 236 236 247 225 232 231 239 243 219 229 240 247 254 255 259 264 267 270 269 269 269 270 270 273 278 289 288
223 246 201 202 212 223 217 216 220 222 225 229 234 238 234 233 236 237 247 248 227 239 250 224 216 227 237 248 256 260 263 267 270 270 266 262 258 257 264 273 276 281 285
214 215 213 211 212 208 215 216 218 221 226 231 236 241 238 231 232 234 248 224 226 231 213 219 227 234 240 253 256 260 262 265 268 269 262 257 259 262 268 273 276 279 279
207 216 211 215 208 206 216 224 222 227 231 235 237 240 246 242 233 231 233 229 225 219 218 225 231 240 247 250 255 259 261 262 263 264 263 263 264 266 266 271 276 275 279
214 219 213 210 215 213 224 228 231 231 234 237 238 238 242 247 242 229 231 231 232 227 236 242 240 243 247 251 255 257 260 263 266 265 265 266 261 272 266 270 278 286 282
198 215 222 222 222 224 230 232 233 234 236 238 238 236 235 236 239 235 233 235 233 238 245 246 246 248 249 250 253 259 261 265 266 265 265 264 260 280 272 280 280 274 282
194 197 208 219 226 227 230 233 235 234 235 237 240 241 239 238 236 236 237 238 241 245 247 248 244 249 254 259 256 261 261 264 266 260 278 266 259 265 269 278 274 272 280
226 216 218 224 227 230 231 234 235 233 235 236 240 242 241 241 243 240 241 245 248 249 245 246 248 252 251 254 254 258 262 269 268 269 262 271 268 270 268 270 269 278 284
240 238 235 231 231 235 237 238 237 236 237 239 240 241 240 240 241 244 243 242 243 245 245 247 246 247 252 256 259 261 263 261 268 259 262 267 269 272 265 270 278 288 288
242 242 239 237 235 235 236 238 234 238 238 238 241 240 238 237 238 241 238 239 242 244 246 249 250 250 252 256 256 257 260 265 259 268 272 268 263 254 268 274 280 282 281
238 239 241 244 245 242 240 239 240 237 234 235 235 236 235 234 235 238 240 243 243 244 247 249 250 254 249 256 260 269 272 272 269 270 264 264 270 275 277 278 276 273 272
244 242 242 243 242 243 243 241 238 240 240 234 229 229 232 232 233 239 235 241 243 248 248 252 258 244 248 248 264 263 258 263 267 270 272 276 277 276 273 271 270 272 275
269 266 259 246 243 244 240 240 240 237 238 237 234 228 225 229 230 233 236 239 245 244 249 258 261 259 260 272 271 271 269 268 269 271 272 271 270 268 268 268 271 273 275
278 272 264 256 250 242 238 235 235 234 231 226 227 229 231 232 236 239 242 246 243 240 247 256 263 262 261 263 264 265 265 265 265 264 264 264 264 265 267 269 271 271 274
263 260 257 252 248 245 241 236 233 229 229 228 229 230 231 233 235 236 241 244 247 250 252 255 258 260 262 263 263 263 262 262 261 261 261 262 264 266 269 269 273 277 282
251 247 244 247 246 241 238 235 233 233 232 232 232 233 235 237 239 241 244 247 250 252 254 256 257 258 258 257 257 259 260 262 263 265 266 267 268 270 271 273 287 292 288